�v������,���r���O(���x),�����t���O,���r���O(���x),�����t���O,��1(���x),�����t���O,�������x,�����t���O,�C�ۑ�(���x),�����t���O,�C�ۑ�(���x),�����t���O
9/1/2003 0:00,25.7,0,58.2,0,25.1,0,25.1,0,20.6,0,82.8,0
9/1/2003 0:15,25.3,0,58,0,25.1,0,25.1,0,20.6,0,83.3,0
9/1/2003 0:30,25,0,58.2,0,25.1,0,25.1,0,20.6,0,83.8,0
9/1/2003 0:45,24.7,0,58.7,0,25.1,0,25.2,0,20.6,0,84.3,0
9/1/2003 1:00,24.5,0,59.2,0,25.1,0,25.2,0,20.6,0,84.8,0
9/1/2003 1:15,24.3,0,59.9,0,25.1,0,25.2,0,20.5,0,85.3,0
9/1/2003 1:30,24.2,0,62.2,0,25.1,0,25.2,0,20.4,0,85.8,0
9/1/2003 1:45,24.1,0,63.5,0,25.1,0,25.3,0,20.3,0,86.3,0
9/1/2003 2:00,24.1,0,65.7,0,25.1,0,25.3,0,20.2,0,86.8,0
9/1/2003 2:15,24.2,0,67.9,0,25.1,0,25.3,0,20.2,0,86.6,0
9/1/2003 2:30,24.3,0,68.9,0,25.1,0,25.3,0,20.2,0,86.3,0
9/1/2003 2:45,24.5,0,69.2,0,25.1,0,25.3,0,20.3,0,86.1,0
9/1/2003 3:00,24.7,0,69.4,0,25.2,0,25.3,0,20.3,0,85.8,0
9/1/2003 3:15,24.8,0,69.5,0,25.2,0,25.1,0,20.3,0,85.6,0
9/1/2003 3:30,24.9,0,69.3,0,25.3,0,25.1,0,20.4,0,85.3,0
9/1/2003 3:45,25.1,0,68.8,0,25.4,0,25.1,0,20.4,0,85.1,0
9/1/2003 4:00,25.1,0,68.7,0,25.5,0,25.1,0,20.5,0,84.8,0
9/1/2003 4:15,25.2,0,69.1,0,25.5,0,25.1,0,20.4,0,85.3,0
9/1/2003 4:30,25.2,0,68.6,0,25.5,0,25.2,0,20.2,0,85.8,0
9/1/2003 4:45,25.3,0,68.5,0,25.5,0,25.2,0,20.1,0,86.3,0
9/1/2003 5:00,25.3,0,68.6,0,25.5,0,25.2,0,20,0,86.8,0
9/1/2003 5:15,25.3,0,68.7,0,25.4,0,25.2,0,20.1,0,86.3,0
9/1/2003 5:30,25.3,0,68.8,0,25.4,0,25.2,0,20.2,0,85.8,0
9/1/2003 5:45,25.3,0,68.8,0,25.4,0,25.2,0,20.4,0,85.3,0
9/1/2003 6:00,25.3,0,68.9,0,25.4,0,25.2,0,20.5,0,84.8,0
9/1/2003 6:15,25.2,0,68.9,0,25.4,0,25.2,0,20.6,0,84.6,0
9/1/2003 6:30,25.2,0,69.1,0,25.5,0,25.2,0,20.6,0,84.3,0
9/1/2003 6:45,25.2,0,69.9,0,25.4,0,25.2,0,20.7,0,84.1,0
9/1/2003 7:00,25.3,0,68.9,0,25.2,0,25.2,0,20.8,0,83.8,0
9/1/2003 7:15,25.3,0,68.8,0,25.1,0,25,0,20.9,0,83.8,0
9/1/2003 7:30,25.3,0,68.5,0,25.1,0,25,0,21,0,83.8,0
9/1/2003 7:45,25.3,0,68.8,0,25,0,25,0,21.1,0,83.8,0
9/1/2003 8:00,25.3,0,68.8,0,24.9,0,25,0,21.2,0,83.8,0
9/1/2003 8:15,25.3,0,70,0,24.9,0,24.9,0,21.2,0,83.6,0
9/1/2003 8:30,25.3,0,69.6,0,24.8,0,24.9,0,21.3,0,83.3,0
9/1/2003 8:45,25.3,0,69.6,0,24.8,0,24.9,0,21.3,0,83.1,0
9/1/2003 9:00,25.3,0,69.4,0,24.8,0,25,0,21.4,0,82.8,0
9/1/2003 9:15,25.2,0,70.8,0,24.9,0,25,0,21.6,0,81.8,0
9/1/2003 9:30,25.1,0,71.5,0,24.9,0,25,0,21.9,0,80.8,0
9/1/2003 9:45,25.1,0,71.7,0,25,0,25,0,22.1,0,79.8,0
9/1/2003 10:00,24.9,0,71.9,0,25.3,0,25,0,22.4,0,78.8,0
9/1/2003 10:15,24.8,0,72.4,0,26.7,0,25,0,22.5,0,78.3,0
9/1/2003 10:30,24.8,0,73.1,0,27,0,24.9,0,22.5,0,77.8,0
9/1/2003 10:45,24.7,0,73.4,0,26.7,0,24.9,0,22.6,0,77.3,0
9/1/2003 11:00,24.7,0,73.6,0,26.5,0,24.9,0,22.7,0,76.8,0
9/1/2003 11:15,24.8,0,73.8,0,26.2,0,24.9,0,22.8,0,76.6,0
9/1/2003 11:30,24.8,0,73.9,0,26,0,24.9,0,23,0,76.3,0
9/1/2003 11:45,24.8,0,72.8,0,25.8,0,24.9,0,23.1,0,76.1,0
9/1/2003 12:00,24.9,0,72.2,0,25.6,0,24.9,0,23.3,0,75.8,0
9/1/2003 12:15,25,0,71.2,0,25.5,0,24.9,0,23.4,0,75.8,0
9/1/2003 12:30,25.2,0,71.8,0,25.4,0,24.8,0,23.5,0,75.8,0
9/1/2003 12:45,25.4,0,71.9,0,25.3,0,24.8,0,23.7,0,75.8,0
9/1/2003 13:00,25.6,0,71.2,0,25.4,0,24.9,0,23.8,0,75.8,0
9/1/2003 13:15,25.7,0,70.6,0,25.5,0,24.9,0,23.8,0,75.1,0
9/1/2003 13:30,25.8,0,70.1,0,25.6,0,24.9,0,23.9,0,74.3,0
9/1/2003 13:45,26,0,69.7,0,25.7,0,24.9,0,23.9,0,73.6,0
9/1/2003 14:00,26.1,0,69.4,0,25.7,0,24.9,0,24,0,72.8,0
9/1/2003 14:15,26.2,0,69.2,0,25.8,0,24.9,0,24.2,0,72.6,0
9/1/2003 14:30,26.3,0,68.9,0,25.9,0,24.9,0,24.4,0,72.3,0
9/1/2003 14:45,26.4,0,68.8,0,26,0,24.9,0,24.6,0,72.1,0
9/1/2003 15:00,26.5,0,68.5,0,26.1,0,24.9,0,24.8,0,71.8,0
9/1/2003 15:15,26.5,0,69.3,0,26.2,0,24.8,0,24.8,0,72.3,0
9/1/2003 15:30,26.6,0,70.1,0,26.2,0,24.9,0,24.7,0,72.8,0
9/1/2003 15:45,26.6,0,70.2,0,26.3,0,24.9,0,24.7,0,73.3,0
9/1/2003 16:00,26.5,0,70.3,0,26.3,0,24.9,0,24.7,0,73.8,0
9/1/2003 16:15,26.5,0,70.7,0,26.4,0,24.9,0,24.6,0,74.3,0
9/1/2003 16:30,26.4,0,71.1,0,26.4,0,24.9,0,24.5,0,74.8,0
9/1/2003 16:45,26.4,0,71.3,0,26.4,0,24.9,0,24.4,0,75.3,0
9/1/2003 17:00,26.3,0,71.3,0,26.4,0,24.9,0,24.3,0,75.8,0
9/1/2003 17:15,26.2,0,71.7,0,26.4,0,24.8,0,24.1,0,76.6,0
9/1/2003 17:30,26.2,0,71,0,26.4,0,24.8,0,23.9,0,77.3,0
9/1/2003 17:45,26.2,0,70.5,0,26.3,0,24.9,0,23.7,0,78.1,0
9/1/2003 18:00,26.2,0,70.5,0,26.3,0,24.9,0,23.5,0,78.8,0
9/1/2003 18:15,26.2,0,70.5,0,26.2,0,24.9,0,23.4,0,79.3,0
9/1/2003 18:30,26.2,0,70.2,0,26.2,0,24.9,0,23.2,0,79.8,0
9/1/2003 18:45,26.3,0,70.6,0,26.1,0,24.9,0,23.1,0,80.3,0
9/1/2003 19:00,26.2,0,67.7,0,26,0,24.9,0,23,0,80.8,0
9/1/2003 19:15,25.9,0,61.6,0,26,0,25,0,22.9,0,80.8,0
9/1/2003 19:30,25.5,0,56.9,0,25.9,0,24.7,0,22.9,0,80.8,0
9/1/2003 19:45,25.1,0,55.8,0,25.8,0,24.8,0,22.8,0,80.8,0
9/1/2003 20:00,24.8,0,64.7,0,25.8,0,24.8,0,22.8,0,80.8,0
9/1/2003 20:15,24.9,0,66.8,0,25.7,0,24.8,0,22.7,0,81.1,0
9/1/2003 20:30,25,0,69.5,0,25.7,0,24.8,0,22.7,0,81.3,0
9/1/2003 20:45,25.2,0,72.1,0,25.6,0,24.9,0,22.6,0,81.6,0
9/1/2003 21:00,25.3,0,71.8,0,25.7,0,24.9,0,22.6,0,81.8,0
9/1/2003 21:15,25.5,0,71.8,0,25.7,0,24.9,0,22.6,0,81.8,0
9/1/2003 21:30,25.6,0,72,0,25.8,0,24.9,0,22.6,0,81.8,0
9/1/2003 21:45,25.7,0,71.9,0,26,0,24.9,0,22.6,0,81.8,0
9/1/2003 22:00,25.8,0,72.1,0,26,0,24.9,0,22.6,0,81.8,0
9/1/2003 22:15,25.8,0,71.9,0,26,0,25,0,22.6,0,81.8,0
9/1/2003 22:30,25.9,0,72.3,0,26,0,25,0,22.5,0,81.8,0
9/1/2003 22:45,25.8,0,65.2,0,26.1,0,25,0,22.5,0,81.8,0
9/1/2003 23:00,25.8,0,66.6,0,26.2,0,25,0,22.5,0,81.8,0
9/1/2003 23:15,25.8,0,67.7,0,26.3,0,25,0,22.5,0,82.1,0
9/1/2003 23:30,25.8,0,68.5,0,26.3,0,25.1,0,22.5,0,82.3,0
9/1/2003 23:45,25.8,0,69.1,0,26.2,0,25.1,0,22.6,0,82.6,0
9/2/2003 0:00,25.9,0,69.4,0,26.2,0,25.1,0,22.6,0,82.8,0
9/2/2003 0:15,25.9,0,69.5,0,26.2,0,25.1,0,22.5,0,83.1,0
9/2/2003 0:30,25.9,0,69.7,0,26.2,0,25.2,0,22.4,0,83.3,0
9/2/2003 0:45,25.9,0,69.7,0,26.2,0,25.2,0,22.3,0,83.6,0
9/2/2003 1:00,25.9,0,69.8,0,26.3,0,25.2,0,22.2,0,83.8,0
9/2/2003 1:15,25.9,0,70.4,0,26.3,0,25.2,0,22.2,0,83.6,0
9/2/2003 1:30,25.9,0,71,0,26.2,0,25.2,0,22.3,0,83.3,0
9/2/2003 1:45,26,0,71.3,0,26.2,0,25.3,0,22.3,0,83.1,0
9/2/2003 2:00,26,0,71.9,0,26.2,0,25.3,0,22.4,0,82.8,0
9/2/2003 2:15,26.1,0,70.4,0,26.2,0,25.3,0,22.4,0,82.6,0
9/2/2003 2:30,26.1,0,70.6,0,26.3,0,25.3,0,22.5,0,82.3,0
9/2/2003 2:45,26.1,0,70.1,0,26.3,0,25.3,0,22.5,0,82.1,0
9/2/2003 3:00,26.1,0,69.6,0,26.4,0,25.3,0,22.6,0,81.8,0
9/2/2003 3:15,26.1,0,69.7,0,26.4,0,25.3,0,22.6,0,81.8,0
9/2/2003 3:30,26.1,0,69.8,0,26.4,0,25.3,0,22.6,0,81.8,0
9/2/2003 3:45,26.1,0,69.9,0,26.4,0,25.3,0,22.7,0,81.8,0
9/2/2003 4:00,26.1,0,69.3,0,26.4,0,25.4,0,22.7,0,81.8,0
9/2/2003 4:15,26.1,0,69.3,0,26.5,0,25.4,0,22.7,0,81.8,0
9/2/2003 4:30,26,0,69.4,0,26.5,0,25.4,0,22.6,0,81.8,0
9/2/2003 4:45,26,0,69.7,0,26.6,0,25.1,0,22.6,0,81.8,0
9/2/2003 5:00,26,0,69.5,0,26.6,0,25,0,22.6,0,81.8,0
9/2/2003 5:15,26,0,69.5,0,26.6,0,25,0,22.7,0,81.3,0
9/2/2003 5:30,26,0,69.9,0,26.6,0,25,0,22.8,0,80.8,0
9/2/2003 5:45,26,0,71.5,0,26.6,0,25,0,22.9,0,80.3,0
9/2/2003 6:00,26,0,71.9,0,26.6,0,25,0,23,0,79.8,0
9/2/2003 6:15,26,0,71.8,0,26.6,0,25.1,0,23.1,0,79.6,0
9/2/2003 6:30,26,0,71.9,0,26.6,0,25.1,0,23.2,0,79.3,0
9/2/2003 6:45,26,0,72.7,0,26.6,0,25.1,0,23.3,0,79.1,0
9/2/2003 7:00,26,0,74.3,0,26.7,0,24.8,0,23.4,0,78.8,0
9/2/2003 7:15,26.1,0,71.5,0,26.8,0,24.8,0,23.6,0,77.8,0
9/2/2003 7:30,25.8,0,60.6,0,26.8,0,24.8,0,23.9,0,76.8,0
9/2/2003 7:45,25.3,0,56,0,26.9,0,24.7,0,24.1,0,75.8,0
9/2/2003 8:00,25.1,0,60,0,27,0,24.7,0,24.4,0,74.8,0
9/2/2003 8:15,25.1,0,64.9,0,27,0,24.7,0,24.6,0,73.8,0
9/2/2003 8:30,25.3,0,67.2,0,27.1,0,24.7,0,24.8,0,72.8,0
9/2/2003 8:45,25.5,0,67.1,0,27.2,0,24.8,0,25,0,71.8,0
9/2/2003 9:00,25.7,0,67.9,0,27.3,0,24.8,0,25.2,0,70.8,0
9/2/2003 9:15,25.9,0,67.7,0,27.4,0,24.8,0,25.5,0,69.6,0
9/2/2003 9:30,26.1,0,67.6,0,27.6,0,24.8,0,25.8,0,68.3,0
9/2/2003 9:45,26.3,0,67.3,0,27.7,0,24.9,0,26.2,0,67.1,0
9/2/2003 10:00,26.5,0,67.3,0,27.9,0,24.9,0,26.5,0,65.8,0
9/2/2003 10:15,26.6,0,68,0,28.1,0,24.9,0,26.8,0,65.3,0
9/2/2003 10:30,26.8,0,68.3,0,28.2,0,24.9,0,27.1,0,64.8,0
9/2/2003 10:45,26.9,0,68.6,0,28.4,0,24.9,0,27.5,0,64.3,0
9/2/2003 11:00,27.1,0,68.8,0,28.7,0,25,0,27.8,0,63.8,0
9/2/2003 11:15,27.2,0,68.9,0,28.9,0,25,0,28,0,63.3,0
9/2/2003 11:30,27.4,0,69.1,0,29.1,0,25,0,28.2,0,62.8,0
9/2/2003 11:45,27.5,0,69.1,0,29.3,0,25.1,0,28.4,0,62.3,0
9/2/2003 12:00,27.6,0,69,0,29.5,0,25.1,0,28.6,0,61.8,0
9/2/2003 12:15,27.8,0,68.9,0,29.7,0,25.2,0,28.8,0,61.3,0
9/2/2003 12:30,28,0,68.8,0,29.9,0,25.2,0,29,0,60.8,0
9/2/2003 12:45,28.1,0,68.8,0,30.2,0,25.2,0,29.3,0,60.3,0
9/2/2003 13:00,28.3,0,68.8,0,30.4,0,25.3,0,29.5,0,59.8,0
9/2/2003 13:15,28.4,0,68.8,0,30.7,0,25.3,0,29.4,0,60,0
9/2/2003 13:30,28.6,0,68.8,0,31,0,25.4,0,29.3,0,60.3,0
9/2/2003 13:45,28.7,0,68.8,0,31.2,0,25.4,0,29.3,0,60.5,0
9/2/2003 14:00,28.9,0,68.5,0,31.5,0,25.4,0,29.2,0,60.8,0
9/2/2003 14:15,29.1,0,68.3,0,31.8,0,25.5,0,29.2,0,61.8,0
9/2/2003 14:30,29.3,0,68,0,32,0,25.5,0,29.1,0,62.8,0
9/2/2003 14:45,29.5,0,67.9,0,32.3,0,25.6,0,29.1,0,63.8,0
9/2/2003 15:00,29.6,0,67.6,0,32.5,0,25.6,0,29.1,0,64.8,0
9/2/2003 15:15,29.8,0,67.5,0,32.7,0,25.7,0,29.1,0,65.3,0
9/2/2003 15:30,29.9,0,67.4,0,32.8,0,25.7,0,29.1,0,65.8,0
9/2/2003 15:45,30.1,0,67.3,0,33,0,25.8,0,29.2,0,66.3,0
9/2/2003 16:00,30.2,0,67.1,0,33,0,25.8,0,29.2,0,66.8,0
9/2/2003 16:15,30.3,0,66.9,0,33,0,25.9,0,29.2,0,67.3,0
9/2/2003 16:30,30.3,0,66.6,0,33.1,0,25.9,0,29.1,0,67.8,0
9/2/2003 16:45,30.3,0,66.5,0,33.1,0,26,0,29.1,0,68.3,0
9/2/2003 17:00,30.3,0,66.5,0,33.1,0,26,0,29.1,0,68.8,0
9/2/2003 17:15,30.4,0,66.9,0,33.1,0,26.1,0,29.1,0,68.8,0
9/2/2003 17:30,30.4,0,67,0,33.1,0,26.1,0,29,0,68.8,0
9/2/2003 17:45,30.4,0,67,0,33.1,0,26.2,0,29,0,68.8,0
9/2/2003 18:00,30.4,0,67.1,0,33.1,0,26.2,0,29,0,68.8,0
9/2/2003 18:15,30.4,0,67.2,0,33.1,0,26.3,0,28.7,0,70.3,0
9/2/2003 18:30,30.2,0,61.8,0,33.1,0,26.3,0,28.3,0,71.8,0
9/2/2003 18:45,29.6,0,49.9,0,33,0,26.4,0,28,0,73.3,0
9/2/2003 19:00,29.1,0,52.6,0,33,0,26.4,0,27.7,0,74.8,0
9/2/2003 19:15,28.6,0,54.9,0,33,0,26.5,0,27.7,0,74.8,0
9/2/2003 19:30,28.3,0,64.3,0,32.9,0,25.1,0,27.6,0,74.8,0
9/2/2003 19:45,28.1,0,58.7,0,32.8,0,25.2,0,27.6,0,74.8,0
9/2/2003 20:00,27.7,0,51.3,0,32.8,0,25.2,0,27.6,0,74.8,0
9/2/2003 20:15,27.3,0,47.6,0,32.8,0,25.3,0,27.6,0,75.1,0
9/2/2003 20:30,26.9,0,49,0,32.7,0,25.3,0,27.6,0,75.3,0
9/2/2003 20:45,26.5,0,47.6,0,32.7,0,24.4,0,27.7,0,75.6,0
9/2/2003 21:00,26.2,0,50,0,32.6,0,24.5,0,27.7,0,75.8,0
9/2/2003 21:15,26.1,0,53.4,0,32.6,0,24.6,0,27.7,0,75.8,0
9/2/2003 21:30,26.4,0,56.4,0,32.4,0,24.6,0,27.8,0,75.8,0
9/2/2003 21:45,26.7,0,59.7,0,32.2,0,24.7,0,27.8,0,75.8,0
9/2/2003 22:00,27.1,0,60.7,0,32,0,24.8,0,27.9,0,75.8,0
9/2/2003 22:15,27.4,0,64.1,0,31.8,0,24.8,0,27.8,0,76.1,0
9/2/2003 22:30,27.5,0,56.2,0,31.7,0,24.9,0,27.8,0,76.3,0
9/2/2003 22:45,27.3,0,52.7,0,32.3,0,24.9,0,27.7,0,76.6,0
9/2/2003 23:00,27,0,49,0,34.7,0,25,0,27.7,0,76.8,0
9/2/2003 23:15,26.7,0,46.7,0,34.3,0,25.1,0,27.7,0,76.8,0
9/2/2003 23:30,26.4,0,46.1,0,33.5,0,25.2,0,27.7,0,76.8,0
9/2/2003 23:45,26.1,0,50,0,32.7,0,25.2,0,27.7,0,76.8,0
9/3/2003 0:00,25.9,0,47.9,0,32.1,0,25.3,0,27.7,0,76.8,0
9/3/2003 0:15,25.7,0,55.7,0,31.6,0,25.2,0,27.7,0,76.6,0
9/3/2003 0:30,25.9,0,63.1,0,30.7,0,25.2,0,27.7,0,76.3,0
9/3/2003 0:45,26.2,0,64.8,0,29.9,0,25.3,0,27.8,0,76.1,0
9/3/2003 1:00,26.5,0,65.1,0,29.4,0,25.4,0,27.8,0,75.8,0
9/3/2003 1:15,26.8,0,65.6,0,29,0,25.4,0,27.6,0,76.3,0
9/3/2003 1:30,27.1,0,66,0,28.6,0,25.5,0,27.4,0,76.8,0
9/3/2003 1:45,27.3,0,66.6,0,28.2,0,25.5,0,27.3,0,77.3,0
9/3/2003 2:00,27.5,0,66.7,0,27.8,0,25.6,0,27.1,0,77.8,0
9/3/2003 2:15,27.7,0,67.1,0,27.5,0,25.7,0,27,0,78.6,0
9/3/2003 2:30,27.8,0,67.2,0,27.3,0,25.7,0,26.9,0,79.3,0
9/3/2003 2:45,28,0,67.3,0,27.1,0,25.8,0,26.8,0,80.1,0
9/3/2003 3:00,28.1,0,67.7,0,26.8,0,25.9,0,26.7,0,80.8,0
9/3/2003 3:15,28.1,0,67.8,0,26.7,0,25.9,0,26.7,0,80.3,0
9/3/2003 3:30,28.2,0,68.1,0,27.1,0,26,0,26.7,0,79.8,0
9/3/2003 3:45,28.2,0,68.2,0,27.3,0,26,0,26.7,0,79.3,0
9/3/2003 4:00,28.3,0,68.3,0,26.9,0,26.1,0,26.7,0,78.8,0
9/3/2003 4:15,28.3,0,68.3,0,26.6,0,26.1,0,26.5,0,79.8,0
9/3/2003 4:30,28.4,0,68.3,0,26.7,0,26.2,0,26.3,0,80.8,0
9/3/2003 4:45,28.4,0,68,0,26.5,0,26.2,0,26.2,0,81.8,0
9/3/2003 5:00,28.4,0,67.9,0,26.5,0,26.3,0,26,0,82.8,0
9/3/2003 5:15,28.5,0,67.9,0,26.4,0,26.3,0,26,0,82.6,0
9/3/2003 5:30,28.5,0,67.9,0,26.4,0,26.3,0,26,0,82.3,0
9/3/2003 5:45,28.5,0,67.9,0,26.4,0,26.4,0,26.1,0,82.1,0
9/3/2003 6:00,28.5,0,68.1,0,26.4,0,26.4,0,26.1,0,81.8,0
9/3/2003 6:15,28.5,0,68,0,26.4,0,26.5,0,26.3,0,81.1,0
9/3/2003 6:30,28.3,0,59.1,0,26.4,0,25.7,0,26.5,0,80.3,0
9/3/2003 6:45,27.9,0,54.8,0,26.6,0,25.8,0,26.7,0,79.6,0
9/3/2003 7:00,27.4,0,49.3,0,27,0,25.8,0,26.9,0,78.8,0
9/3/2003 7:15,27,0,52.7,0,27.4,0,25.3,0,27,0,78.1,0
9/3/2003 7:30,27.1,0,63.6,0,27.7,0,25.3,0,27.2,0,77.3,0
9/3/2003 7:45,27.3,0,66.6,0,27.9,0,25.4,0,27.3,0,76.6,0
9/3/2003 8:00,27.6,0,68.3,0,28.1,0,25.4,0,27.5,0,75.8,0
9/3/2003 8:15,27.8,0,69.2,0,28.3,0,25.5,0,27.9,0,74.6,0
9/3/2003 8:30,28,0,69.4,0,28.5,0,25.5,0,28.3,0,73.3,0
9/3/2003 8:45,28.2,0,73.3,0,28.7,0,25.6,0,28.8,0,72.1,0
9/3/2003 9:00,28.4,0,71.5,0,28.9,0,25.6,0,29.2,0,70.8,0
9/3/2003 9:15,28.5,0,70.7,0,29.2,0,25.7,0,29.7,0,69.3,0
9/3/2003 9:30,28.7,0,70.5,0,29.4,0,25.7,0,30.3,0,67.8,0
9/3/2003 9:45,28.9,0,70.1,0,29.7,0,25.8,0,30.8,0,66.3,0
9/3/2003 10:00,29,0,69.8,0,29.9,0,25.8,0,31.4,0,64.8,0
9/3/2003 10:15,29.2,0,69.5,0,30.2,0,25.9,0,31.6,0,63.8,0
9/3/2003 10:30,29.3,0,69.4,0,30.5,0,25.9,0,31.8,0,62.8,0
9/3/2003 10:45,29.5,0,69.2,0,30.8,0,25.9,0,32,0,61.8,0
9/3/2003 11:00,29.7,0,69.3,0,31.1,0,26,0,32.2,0,60.8,0
9/3/2003 11:15,29.8,0,68.6,0,31.4,0,26.1,0,32.2,0,61,0
9/3/2003 11:30,30,0,68.5,0,31.7,0,26.1,0,32.1,0,61.3,0
9/3/2003 11:45,30.1,0,67.9,0,31.9,0,26.1,0,32.1,0,61.5,0
9/3/2003 12:00,30.3,0,67.7,0,32.2,0,26.2,0,32.1,0,61.8,0
9/3/2003 12:15,30.5,0,68.2,0,32.4,0,26.2,0,32.2,0,61.3,0
9/3/2003 12:30,30.8,0,68.3,0,32.7,0,26.3,0,32.2,0,60.8,0
9/3/2003 12:45,31,0,67.8,0,32.9,0,26.3,0,32.3,0,60.3,0
9/3/2003 13:00,31.2,0,66.9,0,33,0,26.4,0,32.4,0,59.8,0
9/3/2003 13:15,31.4,0,66.5,0,33.2,0,26.4,0,32.5,0,59,0
9/3/2003 13:30,31.6,0,66,0,33.3,0,26.5,0,32.6,0,58.3,0
9/3/2003 13:45,31.8,0,65.3,0,33.5,0,26.5,0,32.8,0,57.5,0
9/3/2003 14:00,31.9,0,64.1,0,33.6,0,26.6,0,32.9,0,56.8,0
9/3/2003 14:15,32.1,0,63.3,0,33.7,0,26.6,0,33,0,55.8,0
9/3/2003 14:30,32.2,0,63.3,0,33.9,0,26.7,0,33.2,0,54.8,0
9/3/2003 14:45,32.3,0,62.9,0,34,0,26.8,0,33.3,0,53.8,0
9/3/2003 15:00,32.4,0,61.3,0,34,0,26.8,0,33.5,0,52.8,0
9/3/2003 15:15,32.5,0,60.8,0,34.1,0,26.9,0,33.3,0,53.3,0
9/3/2003 15:30,32.6,0,60.8,0,34.1,0,26.9,0,33.1,0,53.8,0
9/3/2003 15:45,32.6,0,60.7,0,34.1,0,27,0,32.9,0,54.3,0
9/3/2003 16:00,32.6,0,60.7,0,34.1,0,27,0,32.7,0,54.8,0
9/3/2003 16:15,32.7,0,61.1,0,34.1,0,27.1,0,32.6,0,56,0
9/3/2003 16:30,32.7,0,61,0,34.1,0,27.1,0,32.4,0,57.3,0
9/3/2003 16:45,32.7,0,60.7,0,34.1,0,27.2,0,32.3,0,58.5,0
9/3/2003 17:00,32.7,0,60.8,0,34,0,27.2,0,32.2,0,59.8,0
9/3/2003 17:15,32.7,0,61.2,0,34,0,27.3,0,31.9,0,61.6,0
9/3/2003 17:30,32.7,0,61.5,0,33.9,0,27.3,0,31.6,0,63.3,0
9/3/2003 17:45,32.7,0,61.9,0,33.9,0,27.4,0,31.4,0,65.1,0
9/3/2003 18:00,32.6,0,63.1,0,33.9,0,27.5,0,31.1,0,66.8,0
9/3/2003 18:15,32.3,0,55.9,0,33.7,0,27.6,0,29.7,0,50.1,0
9/3/2003 18:30,31.7,0,51.7,0,33.2,0,27.6,0,28.3,0,33.5,0
9/3/2003 18:45,30.9,0,46.9,0,33.1,0,27.7,0,27,0,16.8,0
9/3/2003 19:00,29.9,0,51.3,0,32.9,0,27.7,0,25.6,0,0.1,0
9/3/2003 19:15,29.3,0,56.5,0,32.8,0,27.8,0,25.9,0,20.3,0
9/3/2003 19:30,28.9,0,57.6,0,32.6,0,26.5,0,26.1,0,40.5,0
9/3/2003 19:45,28.6,0,62.6,0,32.6,0,26.6,0,26.4,0,60.6,0
9/3/2003 20:00,28.3,0,58.7,0,32.5,0,26.6,0,26.7,0,80.8,0
9/3/2003 20:15,28,0,52.5,0,32.4,0,26.7,0,26.6,0,81.8,0
9/3/2003 20:30,27.5,0,50.2,0,32.3,0,26.7,0,26.5,0,82.8,0
9/3/2003 20:45,27.2,0,51.1,0,32.2,0,26.8,0,26.5,0,83.8,0
9/3/2003 21:00,27.2,0,57.4,0,32.2,0,26.9,0,26.4,0,84.8,0
9/3/2003 21:15,27.4,0,60,0,32.1,0,26.9,0,26.4,0,84.8,0
9/3/2003 21:30,27.6,0,61.5,0,32,0,27,0,26.3,0,84.8,0
9/3/2003 21:45,27.9,0,65.6,0,32,0,27,0,26.3,0,84.8,0
9/3/2003 22:00,28.2,0,67.8,0,31.9,0,27.1,0,26.3,0,84.8,0
9/3/2003 22:15,28.5,0,67.9,0,31.8,0,27.2,0,26.3,0,84.3,0
9/3/2003 22:30,28.7,0,67.6,0,31.8,0,27.2,0,26.3,0,83.8,0
9/3/2003 22:45,28.9,0,67.2,0,31.7,0,27.3,0,26.3,0,83.3,0
9/3/2003 23:00,29,0,67.1,0,31.5,0,27.3,0,26.3,0,82.8,0
9/3/2003 23:15,29,0,60.2,0,30.3,0,27.4,0,26.3,0,82.8,0
9/3/2003 23:30,29,0,56.6,0,29.4,0,27.4,0,26.2,0,82.8,0
9/3/2003 23:45,29,0,54.2,0,28.6,0,27.5,0,26.2,0,82.8,0
9/4/2003 0:00,28.9,0,52.4,0,27.7,0,27.5,0,26.2,0,82.8,0
9/4/2003 0:15,28.8,0,51,0,27,0,27.5,0,26.2,0,82.1,0
9/4/2003 0:30,28.7,0,49.4,0,26.4,0,27.6,0,26.2,0,81.3,0
9/4/2003 0:45,28.6,0,48.7,0,25.9,0,27.6,0,26.3,0,80.6,0
9/4/2003 1:00,28.5,0,51.5,0,26,0,27.7,0,26.3,0,79.8,0
9/4/2003 1:15,28.6,0,53.7,0,26.1,0,27.7,0,26.2,0,79.8,0
9/4/2003 1:30,28.6,0,55.6,0,26.2,0,27.7,0,26.2,0,79.8,0
9/4/2003 1:45,28.7,0,57,0,26.1,0,27.8,0,26.1,0,79.8,0
9/4/2003 2:00,28.7,0,58,0,26.1,0,27.8,0,26.1,0,79.8,0
9/4/2003 2:15,28.7,0,59.1,0,26.1,0,27.8,0,26.1,0,79.6,0
9/4/2003 2:30,28.8,0,59.9,0,26.2,0,27.9,0,26,0,79.3,0
9/4/2003 2:45,28.8,0,60.6,0,26.2,0,27.9,0,26,0,79.1,0
9/4/2003 3:00,28.8,0,61.3,0,26.2,0,27.9,0,26,0,78.8,0
9/4/2003 3:15,28.8,0,61.8,0,26.2,0,28,0,26,0,78.3,0
9/4/2003 3:30,28.8,0,62.4,0,26.2,0,28,0,26.1,0,77.8,0
9/4/2003 3:45,28.8,0,62.8,0,26.1,0,28,0,26.1,0,77.3,0
9/4/2003 4:00,28.8,0,63,0,26.1,0,28.1,0,26.2,0,76.8,0
9/4/2003 4:15,28.8,0,63.4,0,26.1,0,28.1,0,26,0,76.8,0
9/4/2003 4:30,28.8,0,63.7,0,26.1,0,28.1,0,25.7,0,76.8,0
9/4/2003 4:45,28.8,0,63.9,0,26.2,0,28.1,0,25.5,0,76.8,0
9/4/2003 5:00,28.8,0,64.3,0,26.2,0,28.1,0,25.3,0,76.8,0
9/4/2003 5:15,28.8,0,64.5,0,26.1,0,28.2,0,25.1,0,76.6,0
9/4/2003 5:30,28.8,0,64.6,0,26.1,0,28.2,0,25,0,76.3,0
9/4/2003 5:45,28.8,0,65,0,26.2,0,28.2,0,24.8,0,76.1,0
9/4/2003 6:00,28.7,0,65.3,0,26.3,0,28.2,0,24.7,0,75.8,0
9/4/2003 6:15,28.7,0,65.8,0,26.3,0,28.2,0,24.4,0,76.1,0
9/4/2003 6:30,28.4,0,54.4,0,26.4,0,28.3,0,24.2,0,76.3,0
9/4/2003 6:45,27.9,0,52.6,0,26.3,0,28.3,0,23.9,0,76.6,0
9/4/2003 7:00,27.9,0,59.5,0,26.2,0,28.3,0,23.7,0,76.8,0
9/4/2003 7:15,27.4,0,53.3,0,26.3,0,28.3,0,23.8,0,75.8,0
9/4/2003 7:30,27,0,54.1,0,26.6,0,26.7,0,23.9,0,74.8,0
9/4/2003 7:45,26.6,0,56.9,0,26.8,0,26.8,0,24,0,73.8,0
9/4/2003 8:00,26.3,0,56.5,0,26.9,0,26.8,0,24.1,0,72.8,0
9/4/2003 8:15,26.4,0,63.3,0,27.1,0,26.8,0,23.8,0,73.3,0
9/4/2003 8:30,26.5,0,66.3,0,27.2,0,26.9,0,23.6,0,73.8,0
9/4/2003 8:45,26.7,0,66.2,0,27.2,0,26.9,0,23.3,0,74.3,0
9/4/2003 9:00,26.9,0,66.3,0,27.3,0,26.9,0,23.1,0,74.8,0
9/4/2003 9:15,27,0,66,0,27.4,0,26.9,0,23.2,0,74.3,0
9/4/2003 9:30,27.2,0,65.7,0,27.4,0,27,0,23.3,0,73.8,0
9/4/2003 9:45,27.3,0,65.5,0,27.5,0,27,0,23.4,0,73.3,0
9/4/2003 10:00,27.4,0,65.3,0,27.6,0,27,0,23.5,0,72.8,0
9/4/2003 10:15,27.4,0,64.7,0,27.7,0,27,0,23.7,0,70.1,0
9/4/2003 10:30,27.5,0,64.6,0,27.7,0,27,0,24,0,67.3,0
9/4/2003 10:45,27.6,0,64.5,0,27.8,0,27.1,0,24.2,0,64.6,0
9/4/2003 11:00,27.7,0,64.2,0,27.9,0,27.1,0,24.5,0,61.8,0
9/4/2003 11:15,27.7,0,63.9,0,28,0,27.1,0,25,0,60.8,0
9/4/2003 11:30,27.8,0,63.7,0,28.1,0,27.1,0,25.5,0,59.8,0
9/4/2003 11:45,27.9,0,63.6,0,28.2,0,27.1,0,26.1,0,58.8,0
9/4/2003 12:00,28,0,63.1,0,28.3,0,27.1,0,26.6,0,57.8,0
9/4/2003 12:15,28,0,63.1,0,28.5,0,27.2,0,26.7,0,56,0
9/4/2003 12:30,28.1,0,63,0,28.6,0,27.2,0,26.9,0,54.3,0
9/4/2003 12:45,28.3,0,62.9,0,28.8,0,27.2,0,27,0,52.5,0
9/4/2003 13:00,28.4,0,62.8,0,29,0,27.2,0,27.2,0,50.8,0
9/4/2003 13:15,28.5,0,62.6,0,29.2,0,27.2,0,27.4,0,48.8,0
9/4/2003 13:30,28.6,0,62.3,0,29.4,0,27.2,0,27.6,0,46.8,0
9/4/2003 13:45,28.8,0,62.3,0,29.7,0,27.2,0,27.8,0,44.8,0
9/4/2003 14:00,29,0,62,0,29.9,0,27.2,0,28,0,42.8,0
9/4/2003 14:15,29.1,0,61.7,0,30.2,0,27.3,0,28,0,43,0
9/4/2003 14:30,29.3,0,61.2,0,30.4,0,27.3,0,28,0,43.3,0
9/4/2003 14:45,29.4,0,61,0,30.5,0,27.3,0,28.1,0,43.5,0
9/4/2003 15:00,29.5,0,60.7,0,30.8,0,27.3,0,28.1,0,43.8,0
9/4/2003 15:15,29.7,0,60.3,0,31,0,27.3,0,28.1,0,44.3,0
9/4/2003 15:30,29.8,0,60.2,0,31.2,0,27.3,0,28.2,0,44.8,0
9/4/2003 15:45,29.9,0,60.1,0,31.4,0,27.3,0,28.2,0,45.3,0
9/4/2003 16:00,30,0,59.7,0,31.5,0,27.4,0,28.3,0,45.8,0
9/4/2003 16:15,30.2,0,59.5,0,31.6,0,27.4,0,28.4,0,44,0
9/4/2003 16:30,30.3,0,59.3,0,31.8,0,27.5,0,28.5,0,42.3,0
9/4/2003 16:45,30.5,0,59.3,0,31.9,0,27.5,0,28.6,0,40.5,0
9/4/2003 17:00,30.6,0,59.2,0,32.1,0,27.5,0,28.7,0,38.8,0
9/4/2003 17:15,30.7,0,59.2,0,32.2,0,27.5,0,28.6,0,39.3,0
9/4/2003 17:30,30.3,0,50.4,0,32.3,0,27.5,0,28.5,0,39.8,0
9/4/2003 17:45,30.2,0,52.1,0,32.2,0,27.5,0,28.4,0,40.3,0
9/4/2003 18:00,30.2,0,53.5,0,32.2,0,27.5,0,28.3,0,40.8,0
9/4/2003 18:15,30,0,48.2,0,32.1,0,27.5,0,28,0,41.8,0
9/4/2003 18:30,29.4,0,46.5,0,32.1,0,27.5,0,27.7,0,42.8,0
9/4/2003 18:45,28.9,0,45.2,0,32,0,27.6,0,27.5,0,43.8,0
9/4/2003 19:00,28.3,0,43.2,0,31.9,0,26.2,0,27.2,0,44.8,0
9/4/2003 19:15,27.8,0,46,0,31.8,0,26.3,0,27,0,43.3,0
9/4/2003 19:30,27.4,0,45.6,0,31.7,0,26.3,0,26.9,0,41.8,0
9/4/2003 19:45,27.2,0,49.6,0,31.1,0,26.3,0,26.7,0,40.3,0
9/4/2003 20:00,26.9,0,51.2,0,30.7,0,26.4,0,26.6,0,38.8,0
9/4/2003 20:15,26.7,0,51.9,0,30.3,0,26.4,0,26.4,0,39.5,0
9/4/2003 20:30,26.3,0,47.8,0,30,0,26.4,0,26.1,0,40.3,0
9/4/2003 20:45,26.1,0,50.3,0,29.7,0,25.8,0,25.9,0,41,0
9/4/2003 21:00,25.7,0,45.9,0,29.5,0,25.2,0,25.7,0,41.8,0
9/4/2003 21:15,25.4,0,49.1,0,29.3,0,25.3,0,25.7,0,41.8,0
9/4/2003 21:30,25.3,0,54.1,0,29.2,0,25.3,0,25.6,0,41.8,0
9/4/2003 21:45,25.5,0,59.6,0,29.1,0,25.4,0,25.6,0,41.8,0
9/4/2003 22:00,25.8,0,63.1,0,28.9,0,25.4,0,25.6,0,41.8,0
9/4/2003 22:15,26.1,0,64,0,28.7,0,25.5,0,25.5,0,43,0
9/4/2003 22:30,26.4,0,63.5,0,28.5,0,25.5,0,25.4,0,44.3,0
9/4/2003 22:45,26.6,0,62.8,0,28.4,0,25.5,0,25.3,0,45.5,0
9/4/2003 23:00,26.8,0,60.4,0,28.2,0,25.6,0,25.2,0,46.8,0
9/4/2003 23:15,27,0,59.4,0,28,0,25.6,0,25.1,0,47,0
9/4/2003 23:30,27.1,0,59.3,0,27.8,0,25.7,0,25.1,0,47.3,0
9/4/2003 23:45,27.1,0,58.9,0,27.5,0,25.7,0,25,0,47.5,0
9/5/2003 0:00,27.2,0,58.5,0,27.2,0,25.8,0,25,0,47.8,0
9/5/2003 0:15,27.2,0,57.8,0,27,0,25.8,0,24.9,0,50,0
9/5/2003 0:30,27.1,0,57.1,0,26.6,0,25.8,0,24.7,0,52.3,0
9/5/2003 0:45,27.1,0,57,0,26.3,0,25.9,0,24.6,0,54.5,0
9/5/2003 1:00,27,0,57.2,0,26.1,0,25.9,0,24.5,0,56.8,0
9/5/2003 1:15,27,0,57.5,0,25.9,0,25.9,0,24.3,0,58.8,0
9/5/2003 1:30,27,0,58.1,0,25.7,0,26,0,24.2,0,60.8,0
9/5/2003 1:45,26.9,0,58.7,0,25.6,0,26,0,24,0,62.8,0
9/5/2003 2:00,26.9,0,59.1,0,25.4,0,26,0,23.9,0,64.8,0
9/5/2003 2:15,26.8,0,59.6,0,25.4,0,26.1,0,23.9,0,64.3,0
9/5/2003 2:30,26.8,0,60.6,0,25.6,0,26.1,0,24,0,63.8,0
9/5/2003 2:45,26.8,0,61.7,0,25.9,0,26.1,0,24,0,63.3,0
9/5/2003 3:00,26.8,0,62.3,0,26.2,0,26.1,0,24.1,0,62.8,0
9/5/2003 3:15,26.7,0,62.6,0,26.3,0,26.2,0,23.9,0,64.6,0
9/5/2003 3:30,26.7,0,62.9,0,26.5,0,26.2,0,23.8,0,66.3,0
9/5/2003 3:45,26.7,0,63.3,0,26.6,0,26.2,0,23.6,0,68.1,0
9/5/2003 4:00,26.7,0,63.6,0,26.7,0,26.2,0,23.5,0,69.8,0
9/5/2003 4:15,26.7,0,63.8,0,26.7,0,26.2,0,23.5,0,70.1,0
9/5/2003 4:30,26.6,0,64,0,26.8,0,26.3,0,23.4,0,70.3,0
9/5/2003 4:45,26.6,0,64.1,0,26.8,0,26.3,0,23.4,0,70.6,0
9/5/2003 5:00,26.6,0,64,0,26.9,0,26.3,0,23.4,0,70.8,0
9/5/2003 5:15,26.5,0,63.7,0,26.9,0,26.3,0,23.3,0,70.6,0
9/5/2003 5:30,26.5,0,63.4,0,26.9,0,26.3,0,23.3,0,70.3,0
9/5/2003 5:45,26.5,0,63.1,0,26.9,0,26.3,0,23.2,0,70.1,0
9/5/2003 6:00,26.4,0,62.9,0,26.9,0,26.3,0,23.2,0,69.8,0
9/5/2003 6:15,26.4,0,62.7,0,27,0,26.4,0,23.4,0,68.3,0
9/5/2003 6:30,26.4,0,62.7,0,27,0,26.4,0,23.6,0,66.8,0
9/5/2003 6:45,26.4,0,62.6,0,27,0,25.8,0,23.9,0,65.3,0
9/5/2003 7:00,26.4,0,63.4,0,27,0,25.8,0,24.1,0,63.8,0
9/5/2003 7:15,26.4,0,64.2,0,27,0,25.8,0,24.4,0,61.3,0
9/5/2003 7:30,26.5,0,62.9,0,27,0,25.8,0,24.8,0,58.8,0
9/5/2003 7:45,26.1,0,52.4,0,27,0,25.8,0,25.1,0,56.3,0
9/5/2003 8:00,25.9,0,62.6,0,27.1,0,25.9,0,25.5,0,53.8,0
9/5/2003 8:15,25.9,0,63.9,0,27.2,0,25.9,0,25.8,0,52.8,0
9/5/2003 8:30,26,0,64.8,0,27.3,0,25.9,0,26,0,51.8,0
9/5/2003 8:45,26.1,0,65.3,0,27.4,0,25.9,0,26.3,0,50.8,0
9/5/2003 9:00,26.3,0,65,0,27.5,0,25.9,0,26.6,0,49.8,0
9/5/2003 9:15,26.5,0,65.3,0,27.6,0,25.9,0,26.8,0,48,0